Regional Weather Roundup
Issued by NWS

Home | Current Version | Previous Version | Graphics & Text | Print | Product List | Glossary On
Versions: 1 2 3 4 5 6 7 8 9 10 11 12 13 14 15 16 17 18 19 20 21 22 23 24 25 26 27 28 29 30 31 32 33 34 35 36 37 38 39 40 41 42 43 44 45 46 47 48 49 50
000
ASUS43 KBIS 202210
RWRND

NORTH DAKOTA REGIONAL WEATHER ROUNDUP
NATIONAL WEATHER SERVICE BISMARCK ND
500 PM CDT FRI OCT 20 2017

NOTE: "FAIR" INDICATES FEW OR NO CLOUDS BELOW 12,000 FEET WITH NO
SIGNIFICANT WEATHER AND/OR OBSTRUCTIONS TO VISIBILITY.


NDZ001>003-009>011-017-202300-
NORTHWEST NORTH DAKOTA

CITY           SKY/WX    TMP DP  RH WIND       PRES   REMARKS
WILLISTON        N/A    N/A N/A N/A MISG      29.20F
MINOT          PTSUNNY   80  38  22 S8        29.23S
MINOT AFB      PTSUNNY   75  38  25 S8        29.21S
$$

NDZ018>021-031>035-040>046-202300-
SOUTHWEST NORTH DAKOTA

CITY           SKY/WX    TMP DP  RH WIND       PRES   REMARKS
BISMARCK       MOSUNNY   75  47  36 S23G31    29.27F
DICKINSON      SUNNY     81  35  19 S14       29.23F
GARRISON         N/A     76  42  29 S14       29.24S
HETTINGER ARPT SUNNY     83  34  17 S16       29.26F
$$

NDZ004>008-012>016-024-026-027-054-202300-
NORTHEAST NORTH DAKOTA

CITY           SKY/WX    TMP DP  RH WIND       PRES   REMARKS
GRAND FORKS    PTSUNNY   76  53  44 S29G40    29.38S
GRND FRKS AFB  MOSUNNY   74  51  44 S20G26    29.37S
DEVILS LAKE    PTSUNNY   69  51  52 S22G29    29.32F
$$

NDZ022-023-025-028>030-036>039-047>053-202300-
SOUTHEAST NORTH DAKOTA

CITY           SKY/WX    TMP DP  RH WIND       PRES   REMARKS
FARGO          MOSUNNY   77  54  44 S24G39    29.42F
JAMESTOWN      PTSUNNY   69  51  52 S16G25    29.37F
$$





USA.gov is the U.S. government's official web portal to all federal, state and local government web resources and services.